Flag for China Weather past 2 weeks in Tianjin, Tianjin Municipality, China

Now
73 °F

Thunderstorms. Fog.


Feels Like: 70 °F
Forecast: 69 / 74 °F
Wind: 6 mph from Southeast

Location: Tianjin / Zhangguizhu

Current Time: Sep 1, 2014 at 9:47:42 PM

Latest Report: Sep 1, 2014 at 9:30 PM


Visibility: 1 mi

Pressure: 29.86 "Hg

Humidity: 94%

Dew point: 72 °F

Location of TianjinLocation

Historic Weather in Tianjin — Graph

°F

Tianjin temperature yesterday

Maximum temperature yesterday: 77 °F (at 3:00 PM)
Minimum temperature yesterday: 68 °F (at 3:30 AM)
Average temperature yesterday: 72 °F

Past Weeks' High & Low Weather Summary

 TemperatureHumidityPressure
High93 °F (Aug 21, 3:30 PM)94% (Aug 24, 2:00 AM)30.01 "Hg (Aug 24, 2:00 AM)
Low68 °F (Aug 24, 2:00 AM)15% (Aug 26, 2:30 PM)29.62 "Hg (Aug 23, 2:30 PM)
Average78 °F65%29.85 "Hg
* Reported Aug 17 8:00 PM — Sep 1 8:30 PM, Tianjin, Weather by CustomWeather, © 2014

Note: Actual official high and low records may vary slightly from our data, if they occured in-between our weather recording intervals... More about our weather records

Advertising

Tianjin weather history for previous 24 hours

 ConditionsComfort  
Time TempWeatherWind HumidityBarometerVisibility
8:30 PM
Sep 1
75 °FThunderstorms. Fog.3 mph83%29.86 "Hg2 mi
8:00 PM75 °FFog.3 mph83%29.86 "Hg2 mi
7:30 PM75 °FFog.8 mph83%29.86 "Hg2 mi
7:00 PM77 °FFog.6 mph79%29.86 "Hg2 mi
6:30 PM77 °FFog.6 mph79%29.86 "Hg3 mi
6:00 PM77 °FFog.8 mph79%29.86 "Hg3 mi
5:30 PM77 °FFog.8 mph79%29.86 "Hg3 mi
5:00 PM79 °FClear.8 mph74%29.86 "Hg4 mi
4:30 PM79 °FClear.10 mph74%29.86 "Hg4 mi
4:00 PM81 °FHaze.8 mph66%29.86 "Hg3 mi
3:30 PM81 °FHaze.6 mph66%29.86 "Hg3 mi
3:00 PM81 °FHaze.6 mph66%29.86 "Hg2 mi
2:30 PM81 °FHaze.3 mph66%29.86 "Hg2 mi
2:00 PM81 °FHaze.6 mph66%29.86 "Hg2 mi
1:30 PM79 °FHaze.8 mph70%29.89 "Hg2 mi
1:00 PM79 °FHaze.3 mph70%29.89 "Hg2 mi
12:30 PM79 °FHaze.3 mph70%29.92 "Hg1 mi
12:00 PM77 °FHaze.6 mph74%29.92 "Hg1 mi
11:30 AM79 °FFog.3 mph70%29.92 "Hg1 mi
11:00 AM79 °FFog.3 mph74%29.92 "Hg1 mi
10:30 AM77 °FFog.1 mph74%29.95 "Hg1 mi
10:00 AM77 °FFog.1 mph74%29.95 "Hg1 mi
9:30 AM77 °FFog.1 mph74%29.95 "Hg1 mi
9:00 AM75 °FFog.1 mph78%29.95 "Hg1 mi
8:30 AM75 °FFog.1 mph83%29.95 "Hg1 mi
8:00 AM73 °FFog.1 mph89%29.92 "Hg1 mi
7:30 AM73 °FFog.1 mph89%29.92 "Hg1 mi
7:00 AM72 °FFog.1 mph88%29.92 "Hg1 mi
6:30 AM72 °FFog.1 mph88%29.92 "Hg1 mi
6:00 AM70 °FFog.1 mph94%29.92 "Hg1 mi
5:30 AM70 °FFog.1 mph88%29.92 "Hg1 mi
5:00 AM70 °FFog.3 mph94%29.92 "Hg1 mi
4:30 AM70 °FFog.1 mph94%29.92 "Hg1 mi
4:00 AM72 °FFog.1 mph88%29.92 "Hg1 mi
3:30 AM72 °FFog.1 mph88%29.92 "Hg1 mi
3:00 AM72 °FFog.1 mph88%29.92 "Hg1 mi
2:30 AM72 °FFog.1 mph88%29.92 "Hg1 mi
2:00 AM72 °FFog.1 mph88%29.92 "Hg1 mi
1:30 AM72 °FFog.1 mph88%29.92 "Hg1 mi
1:00 AM72 °FFog.1 mph88%29.92 "Hg1 mi
12:30 AM72 °FFog.3 mph88%29.92 "Hg1 mi
12:00 AM72 °FFog.No wind88%29.92 "Hg1 mi
11:30 PM
Aug 31
72 °FFog.1 mph88%29.92 "Hg1 mi
11:00 PM72 °FFog.1 mph88%29.92 "Hg1 mi
10:30 PM73 °FFog.1 mph83%29.95 "Hg1 mi
10:00 PM72 °FFog.1 mph88%29.92 "Hg1 mi
9:30 PM72 °FFog.1 mph88%29.92 "Hg1 mi
9:00 PM72 °FFog.No wind88%29.92 "Hg2 mi
Weather by CustomWeather, © 2014

See weather overviewHow to use our weather pages